Location: Les Gen�tes
(46.3104°N, 1.5969°E)
Time: 17:40:55
(UTC+00:00)

ATLAS 3B R/B - Pass Details

Date: 01 June 2020
Orbit: 1024 x 1171 km, 63.8° (Epoch: 15 June)

Event Time Altitude Azimuth Distance (km) Brightness Sun altitude
Rises 23:08:12 0° 321° (NW) 3,816 6.6 -20.8°
Reaches altitude 10° 23:10:48 10° 321° (NW) 2,875 5.8 -20.9°
Maximum altitude 23:17:37 89° 239° (WSW) 1,084 2.6 -21.0°
Enters shadow 23:21:10 32° 144° (SE) 1,770 3.4 -21.1°
